www.pogodaiklimat.ru

Погода и климат >> Архив погоды >> Мексика >> Manzanillo


ПОГОДА в Manzanillo

  • Прогноз погоды в Manzanillo
  • Монитор погоды в Manzanillo
  • Климат города

АРХИВ ПОГОДЫ в Manzanillo

Время (UTC), дата Ветер
(напр.,м/с)
 
Видим.   Явления Облачность Т
(С)
Тd
(С)
f
(%)
Тe
(С)
Тes
(С)
Комфортность P
(гПа)
Po
(гПа)
Тmin
(С)
Tmax
(С)
R
(мм)
R24
(мм)
S
(см)
03 16.07 ЮЗ 2 6000 м мгла {туман} 8/0 2000 м
[Ac trans Cs]
+30.0 +26.5 82 +46 +46 опасность
перегрева
1011.9 1011.5
06 16.07 СЗ 2 6000 м мгла {туман} ясно +30.0 +24.8 74 +43 +43 опасность
перегрева
1012.8 1012.4 +27.0 +34.9
09 16.07 С 1 6000 м мгла {туман} 1/0 1500 м
[Ac trans]
+28.6 +25.1 81 +41 +41 опасность
перегрева
1013.1 1012.7
12 16.07 С 1 6000 м мгла {туман} 5/0 1500 м
[Ac trans]
+27.2 +24.5 85 +38 +38 очень
душно
1012.4 1012.0 +27.2 +34.9
15 16.07 штиль 0 6000 м мгла {туман} 4/0
[Cs]
+31.3 +24.1 66 +43 +52 опасность
перегрева
1013.6 1013.2
18 16.07 ЮЗ 2 6000 м мгла {туман} 1/1 600 м
[Cu med, cong]
+33.7 +24.8 60 +47 +66 опасность
перегрева
1013.9 1013.5 +27.0 +34.5
21 16.07 З 3 7000 м мгла {туман} 9/4 600 м
[Cb cap As op Ci fib]
+32.1 +26.8 74 +50 +55 опасность
перегрева
1012.4 1012.0
00 17.07 З 2 6000 м мгла {туман} 9/0 1500 м
[As op]
+30.0 +27.1 84 +47 +48 опасность
перегрева
1011.2 1010.8 +27.0 +34.5
03 17.07 СЗ 1 6000 м мгла {туман} 8/8 600 м
[Sc]
+29.9 +26.2 81 +46 +46 опасность
перегрева
1012.2 1011.9
06 17.07 С 1 6000 м мгла {туман} 8/8 300 м
[Sc]
+29.2 +24.5 76 +41 +41 опасность
перегрева
1013.5 1013.1 +27.0 +34.5
09 17.07 С 1 6000 м мгла {туман} 3/3 600 м
[Sc]
+28.4 +24.0 77 +39 +39 очень
душно
1013.1 1012.7
12 17.07 С 1 6000 м мгла {туман} 8/8 600 м
[Sc]
+27.4 +23.6 80 +37 +37 очень
душно
1014.0 1013.6 +27.4 +34.5
15 17.07 В 2 7000 м мгла {туман} 9/0 1500 м
[Ac trans Ci fib]
+29.9 +26.2 81 +46 +49 опасность
перегрева
1015.1 1014.7
18 17.07 ЮВ 3 7000 м мгла {туман} 4/0 1500 м
[Ac trans Ci fib]
+34.2 +24.5 57 +47 +61 опасность
перегрева
1015.9 1015.4 +27.3 +34.9
21 17.07 Ю 2 6000 м мгла {туман} 9/1 600 м
[Cb cap Ac und]
+34.4 +26.5 64 +52 +57 опасность
перегрева
1013.5 1013.1
00 18.07 З 2 6000 м мгла {туман} 9/0 1500 м
[Ac trans]
+30.9 +26.9 79 +48 +49 опасность
перегрева
1012.8 1012.4 +27.3 +35.3
03 18.07 СЗ 1 6000 м мгла {туман} 10/1 600 м
[St As op]
+30.2 +25.9 78 +45 +45 опасность
перегрева
1014.1 1013.7
06 18.07 СЗ 1 6000 м мгла {туман} 5/0 1500 м
[As trans]
+29.6 +25.1 77 +43 +43 опасность
перегрева
1015.4 1015.0 +27.3 +35.3
09 18.07 С 2 6000 м мгла {туман} 6/6 600 м
[Sc]
+28.9 +24.8 79 +41 +41 опасность
перегрева
1015.6 1015.2
12 18.07 СВ 2 6000 м мгла {туман} 6/0 2000 м
[Ac trans]
+28.8 +23.4 73 +39 +39 очень
душно
1015.5 1015.1 +28.9 +35.3
15 18.07 С 2 6000 м мгла {туман} 6/0 1500 м
[Ac trans]
+30.0 +24.9 74 +43 +48 опасность
перегрева
1015.3 1014.9
18 18.07 Ю 2 6000 м мгла {туман} ясно +34.4 +25.9 61 +50 +71 опасность
перегрева
1014.7 1014.3 +28.1 +35.6
21 18.07 ЮЗ 3 6000 м мгла {туман} 1/1 600 м
[Cu med, cong]
+32.9 +26.2 68 +49 +62 опасность
перегрева
1013.1 1012.7
00 19.07 ЮЗ 2 6000 м мгла {туман} 3/0 1500 м
[As op]
+32.1 +24.9 66 +46 +48 опасность
перегрева
1011.9 1011.5 +28.1 +36.0
03 19.07 З 3 6000 м мгла {туман} 4/0 2000 м
[Ac trans]
+29.9 +25.7 78 +44 +44 опасность
перегрева
1012.4 1012.0
06 19.07 С 1 6000 м мгла {туман} ясно +29.0 +24.2 75 +40 +40 очень
душно
1013.1 1012.7 +28.1 +36.0
09 19.07 СЗ 1 6000 м мгла {туман} ясно +28.0 +24.6 82 +40 +40 очень
душно
1013.2 1012.8
12 19.07 СВ 1 6000 м мгла {туман} ясно +27.4 +23.9 81 +38 +38 очень
душно
1011.9 1011.5 +27.4 +36.0
15 19.07 С 1 6000 м мгла {туман} ясно +30.1 +25.5 76 +44 +52 опасность
перегрева
1013.3 1012.9
18 19.07 ЮВ 3 6000 м мгла {туман} 4/4 600 м
[Cb calv As op]
+32.9 +26.4 69 +50 +60 опасность
перегрева
1013.3 1012.9 +27.2 +35.3
21 19.07 Ю 1 6000 м мгла {туман} 6/0 1500 м
[As op]
+33.0 +27.9 75 +54 +64 опасность
перегрева
1012.0 1011.7
00 20.07 З 2 6000 м мгла {туман} 6/0 1500 м
[As op]
+31.5 +25.7 71 +46 +48 опасность
перегрева
1010.1 1009.7 +27.2 +35.3
03 20.07 В 1 6000 м мгла {туман} ясно +29.4 +27.2 88 +47 +47 опасность
перегрева
1010.6 1010.2
06 20.07 С 2 6000 м мгла {туман} ясно +28.0 +25.5 86 +41 +41 опасность
перегрева
1011.7 1011.3 +27.2 +35.3
09 20.07 С 1 6000 м мгла {туман} ясно +28.1 +25.2 84 +41 +41 опасность
перегрева
1011.8 1011.4
12 20.07 С 1 6000 м мгла {туман} ясно +27.3 +24.5 85 +39 +39 очень
душно
1012.7 1012.3 +27.3 +35.3
15 20.07 С 1 6000 м мгла {туман} 1/1 600 м
[Cu med, cong]
+30.2 +24.4 71 +42 +50 опасность
перегрева
1013.6 1013.2
18 20.07 Ю 3 6000 м мгла {туман} 1/1 600 м
[Cb calv]
+34.4 +25.5 60 +49 +65 опасность
перегрева
1013.8 1013.4 +27.3 +35.4
21 20.07 Ю 3 6000 м мгла {туман} 6/6 600 м
[Sc]
+34.0 +27.3 68 +53 +58 опасность
перегрева
1011.5 1011.1
00 21.07 Ю 2 6000 м мгла {туман} 4/4 600 м
[Sc]
+33.0 +25.9 66 +48 +50 опасность
перегрева
1011.0 1010.6 +27.3 +36.4
03 21.07 С 2 6000 м мгла {туман} 5/0 2000 м
[Ac trans]
+30.2 +23.3 67 +41 +41 опасность
перегрева
1011.4 1011.0
06 21.07 С 2 6000 м мгла {туман} 8/3 300 м
[Sc diur, vesp Ac und]
+29.7 +23.6 70 +41 +41 опасность
перегрева
1013.3 1012.9 +27.3 +36.4
09 21.07 С 2 6000 м мгла {туман} 8/8 600 м
[Sc]
+28.1 +23.5 76 +38 +38 очень
душно
1012.9 1012.5
12 21.07 С 1 6000 м мгла {туман} ясно +27.5 +23.6 79 +37 +37 очень
душно
1012.6 1012.2 +27.2 +36.4
15 21.07 С 2 6000 м мгла {туман} ясно +29.2 +23.5 71 +40 +47 очень
душно
1013.8 1013.4
18 21.07 ЮВ 1 6000 м мгла {туман} 3/0
[Ci fib]
+34.0 +24.7 58 +47 +70 опасность
перегрева
1013.0 1012.6 +27.2 +34.5
21 21.07 ЮЗ 3 7000 м мгла {туман} 4/1 600 м
[Cu med, cong Ci fib]
+33.4 +26.9 69 +51 +63 опасность
перегрева
1011.9 1011.5
00 22.07 ЮЗ 2 7000 м мгла {туман} 5/4 300 м
[Cb cap Ac trans]
+31.9 +26.3 72 +48 +49 опасность
перегрева
1013.0 1012.6 +27.2 +34.9
03 22.07 ЮЗ 1 6000 м мгла {туман} ясно +30.0 +26.3 81 +46 +46 опасность
перегрева
1011.6 1011.2
06 22.07 СЗ 1 6000 м мгла {туман} ясно +29.7 +24.8 75 +42 +42 опасность
перегрева
1013.4 1013.0 +27.2 +34.9
12 22.07 С 2 6000 м мгла {туман} 3/3 600 м
[Sc]
+27.6 +24.1 81 +38 +38 очень
душно
1012.7 1012.3 +27.6 +34.9
15 22.07 С 2 6000 м мгла {туман} ясно +31.8 +26.3 73 +48 +55 опасность
перегрева
1013.3 1012.9
18 22.07 З 2 6000 м мгла {туман} ясно +33.4 +27.9 73 +54 +75 опасность
перегрева
1013.1 1012.7 +27.6 +33.9
21 22.07 ЮЗ 3 7000 м мгла {туман} 3/3 600 м
[Cb cap]
+32.9 +27.8 75 +53 +63 опасность
перегрева
1010.5 1010.1
00 23.07 СЗ 3 7000 м мгла {туман} 9/6 300 м
[Cu med, cong As op]
+31.4 +26.2 74 +47 +48 опасность
перегрева
1010.7 1010.3 +27.6 +33.9

 

Местоположение метеостанции Manzanillo (Мексика): широта 19.05 долгота -104.30 высота над уровнем моря 3 м.

В архиве по умолчанию представлена погода в Manzanillo за последнюю неделю. Архивные данные за месяц целиком и за предыдущие месяцы, начиная с января 2011 года, Вы можете получить, выбрав интересующий диапазон дат из раскрывающегося списка и нажав кнопку "Ввод!".


*Определитесь, кто Вы:
робот инопланетянин человек

Внимание! Время в таблицах - всемирное. Для получения местного времени необходимо прибавить поправку, которая в Manzanillo равна -6 ч.

Смотрите также архив погоды в соседних городах и на ближайших метеорологических станциях:

Погода в Colima (Мексика) (88 км)
Погода в Ciudad Guzman (Мексика) (120 км)
Погода в Guadalajara (Мексика) (208 км)
Погода в Zamora (Мексика) (234 км)
Погода в Tepic (Мексика) (280 км)
Погода в Morelia (Мексика) (343 км)
Погода в Colotlan (Мексика) (356 км)
Погода в Lagos De Moreno (Мексика) (357 км)
Погода в Aguascalientes (Мексика) (377 км)
Погода в Huejucar (Мексика) (383 км)

Пояснения к столбцам:

Ветер - указаны скорость ветра в м/с - средняя за 10 мин, порывы в срок и между сроками (в фигурных скобках) и направление, откуда дует ветер: С - северный, СВ - северо-восточный, В - восточный, ЮВ - юго-восточный, Ю - южный, ЮЗ - юго-западный, З - западный, СЗ - северо-западный.
Видимость - горизонтальная дальность видимости в метрах или километрах. При видимости от 1 до 10 км при отсутствии осадков обычно наблюдается дымка, при ухудшении видимости до 1 км и менее - туман. В сухую погоду видимость может ухудшаться дымом, пылью или мглою.
Явления - указаны атмосферные явления, наблюдавшиеся в срок или в последний час перед сроком; фигурными скобками обозначены явления, наблюдавшиеся между сроками (за 1-3 часа до срока); квадратными скобками обозначены град или гололедные отложения с указанием их диаметра в мм.
Облачность - указаны через наклонную черту общая и нижняя облачность в баллах и высота нижней границы облаков в метрах; квадратными скобками обозначены формы облаков: Ci - перистые, Cs - перисто-слоистые, Cc - перисто-кучевые, Ac - высококучевые, As - высокослоистые, Sc - слоисто-кучевые, Ns - слоисто-дождевые, Cu - кучевые, Cb - кучево-дождевые. Подробнее классификацию облаков см. в Атласе облаков (PDF).
T - Температура воздуха - температура, измеренная на высоте 2 м над землей.
Td - Температура точки росы - температура, при понижении до которой содержащийся в воздухе водяной пар достигнет насыщения.
f - Относительная влажность воздуха - влажноcть воздуха, измеренная на высоте 2 м над землей.
Te - Эффективная температура - температура, которую ощущает одетый по сезону человек в тени. Характеристика душности погоды. При расчете учитывается влияние влажности воздуха и скорости ветра на теплоощущения человека.
Tes - Эффективная температура на солнце - температура, которую ощущает человек, с поправкой на солнечный нагрев. Характеристика знойности погоды. Зависит от высоты солнца над горизонтом, облачности и скорости ветра. Ночью, в пасмурную погоду, а также при ветре 12 м/с и более поправка равна нулю.
P - Атмосферное давление - приведенное к уровню моря атмосферное давление.
Po - Атмосферное давление - измеренное на уровне метеостанции атмосферное давление.
Tmin - Минимальная температура - минимум температуры воздуха на высоте 2 м над землей.
Tmax - Максимальная температура - максимум температуры воздуха на высоте 2 м над землей.
R - Количество осадков - Количество выпавших осадков за период времени, мм. При наведении курсора мыши на число - период времени, за который выпало указанное количество осадков.
R24 - Количество осадков - Количество выпавших осадков за 24 часа, мм.
S - Снежный покров - Высота снежного покрова, см. При наведении курсора мыши на число - состояние снежного покрова и степень покрытия местности в баллах.